DW9750 Weather Reports


time (UTC)temp
F
wind
direction
speed
knots
gust
knots
rain 1hr
in
rain 24hr
in
rain mn
in
humidity
%
barometer
mb
20260906061502 80 164 0.0 1.7 0.00 0.00 0.00 72 1011.4
20260906060150 80 105 0.0 2.6 0.00 0.00 0.00 71 1011.6
20260906054611 81 114 0.0 0.9 0.00 0.00 0.00 70 1011.5
20260906053057 81 115 0.9 3.5 0.00 0.00 0.00 69 1011.7
20260906051553 81 94 1.7 4.3 0.00 0.00 0.00 68 1011.7
20260906050105 81 79 1.7 5.2 0.00 0.00 0.00 66 1011.5
20260906044549 81 104 0.9 4.3 0.00 0.00 0.00 64 1011.4
20260906043049 81 73 0.9 2.6 0.00 0.00 0.00 62 1011.5
20260906041547 82 109 1.7 4.3 0.00 0.00 0.00 61 1011.5
20260906040046 83 126 0.9 5.2 0.00 0.00 0.00 59 1011.2
20260906034556 82 104 1.7 6.1 0.00 0.00 0.00 59 1011.0
20260906033045 82 115 0.0 3.5 0.00 0.00 0.00 58 1010.9
20260906031608 81 72 1.7 4.3 0.00 0.00 0.00 59 1010.5
20260906030045 81 66 0.0 0.9 0.00 0.00 0.00 59 1010.2
20260906024553 82 66 0.0 0.0 0.00 0.00 0.00 58 1010.0
20260906023104 83 66 0.0 0.0 0.00 0.00 0.00 56 1009.6
20260906021541 83 66 0.0 0.0 0.00 0.00 0.00 54 1009.3
20260906020049 84 66 0.0 0.0 0.00 0.00 0.00 53 1009.2
20260906014541 85 69 0.0 0.0 0.00 0.00 0.00 52 1009.1
20260906013041 86 75 0.9 2.6 0.00 0.00 0.00 50 1009.0
20260906011540 87 99 1.7 2.6 0.00 0.00 0.00 50 1008.9
20260906010039 88 92 0.9 3.5 0.00 0.00 0.00 49 1008.8
20260906004546 89 76 1.7 4.3 0.00 0.00 0.00 48 1008.7
20260906003047 91 140 1.7 7.8 0.00 0.00 0.00 47 1008.7
20260906001543 91 68 1.7 7.8 0.00 0.00 0.00 46 1008.6
20260906000036 92 71 4.3 8.7 0.00 0.00 0.00 46 1008.5
20260905234536 93 92 1.7 5.2 0.00 0.00 0.00 45 1008.5
20260905233043 93 95 2.6 7.0 0.00 0.00 0.00 44 1008.6
20260905231536 93 179 3.5 10.4 0.00 0.00 0.00 44 1008.5
20260905230031 94 96 3.5 8.7 0.00 0.00 0.00 45 1008.5
20260905224530 94 102 3.5 8.7 0.00 0.00 0.00 45 1008.3
20260905223028 95 123 3.5 7.0 0.00 0.00 0.00 45 1008.6
20260905221526 94 125 3.5 7.8 0.00 0.00 0.00 46 1008.5
20260905220025 93 80 1.7 7.0 0.00 0.00 0.00 46 1008.5
20260905214523 93 151 2.6 7.0 0.00 0.00 0.00 45 1008.6
20260905213022 94 120 3.5 7.0 0.00 0.00 0.00 44 1008.7
20260905211518 96 200 1.7 6.1 0.00 0.00 0.00 45 1008.9
20260905210016 94 111 2.6 7.8 0.00 0.00 0.00 47 1009.1
20260905204515 92 175 1.7 7.8 0.00 0.00 0.00 48 1009.4
20260905203113 95 133 2.6 6.1 0.00 0.00 0.00 45 1009.6
20260905201512 94 107 2.6 7.0 0.00 0.00 0.00 46 1009.8
20260905200007 94 104 2.6 7.0 0.00 0.00 0.00 48 1010.0
20260905194504 95 105 2.6 6.1 0.00 0.00 0.00 43 1010.3
20260905193001 94 289 2.6 7.0 0.00 0.00 0.00 43 1010.6
20260905191558 94 229 0.9 5.2 0.00 0.00 0.00 46 1010.9
20260905190057 93 152 3.5 7.8 0.00 0.00 0.00 44 1011.1
20260905184552 92 89 2.6 7.8 0.00 0.00 0.00 49 1011.4
20260905183049 92 109 5.2 7.8 0.00 0.00 0.00 50 1011.6
20260905181545 91 96 3.5 7.0 0.00 0.00 0.00 52 1011.8
20260905180105 90 237 0.9 7.0 0.00 0.00 0.00 56 1012.0
20260905174544 90 177 2.6 8.7 0.00 0.00 0.00 57 1012.3
20260905173101 89 167 0.9 6.1 0.00 0.00 0.00 59 1012.4
20260905171550 89 198 2.6 7.0 0.00 0.00 0.00 58 1012.6
20260905170038 89 119 2.6 8.7 0.00 0.00 0.00 62 1012.7
20260905164542 89 102 2.6 9.6 0.00 0.00 0.00 62 1012.7
20260905163033 87 71 2.6 7.0 0.00 0.00 0.00 64 1012.8
20260905161531 86 173 3.5 8.7 0.00 0.00 0.00 65 1012.9
20260905160048 87 184 3.5 7.0 0.00 0.00 0.00 66 1012.8
20260905154527 85 91 2.6 7.0 0.00 0.00 0.00 69 1012.8
20260905153028 85 229 1.7 5.2 0.00 0.00 0.00 71 1012.8
20260905151522 83 133 1.7 6.1 0.00 0.00 0.00 75 1012.8
20260905150019 83 154 1.7 7.0 0.00 0.00 0.00 76 1012.9
20260905144527 82 84 2.6 5.2 0.00 0.00 0.00 79 1012.8
20260905143012 80 211 1.7 4.3 0.00 0.00 0.00 82 1012.9
20260905141512 78 218 0.0 5.2 0.00 0.00 0.00 87 1012.9
20260905140002 77 139 0.0 2.6 0.00 0.00 0.00 89 1012.9
20260905134605 73 158 0.0 1.7 0.00 0.00 0.00 94 1012.7
20260905133058 72 21 0.0 0.0 0.00 0.00 0.00 95 1012.5
20260905131557 70 21 0.0 0.0 0.00 0.00 0.00 94 1012.6
20260905130056 70 94 0.0 0.0 0.00 0.00 0.00 94 1012.5
20260905124556 69 94 0.0 0.0 0.00 0.00 0.00 94 1012.2
20260905123051 69 94 0.0 0.0 0.00 0.00 0.00 94 1012.0
20260905121556 69 94 0.0 0.0 0.00 0.00 0.00 93 1011.9
20260905120100 69 94 0.0 0.0 0.00 0.00 0.00 93 1011.9
20260905114601 69 94 0.0 0.0 0.00 0.00 0.00 93 1011.8
20260905113055 70 94 0.0 0.0 0.00 0.00 0.00 92 1011.7
20260905111633 70 94 0.0 0.0 0.00 0.00 0.00 94 1011.7
20260905110044 70 94 0.0 0.0 0.00 0.00 0.00 92 1011.6
20260905104544 70 94 0.0 0.0 0.00 0.00 0.00 92 1011.5
20260905103042 70 94 0.0 0.0 0.00 0.00 0.00 91 1011.6
20260905101543 70 94 0.0 0.0 0.00 0.00 0.00 91 1011.6
20260905100041 70 94 0.0 0.0 0.00 0.00 0.00 91 1011.5
20260905094539 71 94 0.0 0.0 0.00 0.00 0.00 90 1011.5
20260905093042 71 94 0.0 0.0 0.00 0.00 0.00 90 1011.4
20260905091537 71 94 0.0 0.0 0.00 0.00 0.00 88 1011.4
20260905090036 72 94 0.0 0.0 0.00 0.00 0.00 87 1011.4
20260905084534 73 76 0.0 0.0 0.00 0.00 0.00 91 1011.4
20260905083032 72 54 0.0 0.0 0.00 0.00 0.00 90 1011.4
20260905081530 72 54 0.0 0.0 0.00 0.00 0.00 88 1011.5
20260905080033 72 54 0.0 0.0 0.00 0.00 0.00 87 1011.6
20260905074527 73 54 0.0 0.0 0.00 0.00 0.00 86 1011.7
20260905073035 74 54 0.0 1.7 0.00 0.00 0.00 85 1011.9
20260905071525 73 92 0.9 2.6 0.00 0.00 0.00 85 1011.8
20260905070043 73 94 0.0 0.0 0.00 0.00 0.00 84 1011.9
20260905064537 74 94 0.0 0.0 0.00 0.00 0.00 83 1011.8
20260905063021 74 94 0.0 0.0 0.00 0.00 0.00 83 1012.0